Regional Weather Roundup
Issued by NWS

Home | Current Version | Previous Version | Graphics & Text | Print | Product List | Glossary On
Versions: 1 2 3 4 5 6 7 8 9 10 11 12 13 14 15 16 17 18 19 20 21 22 23 24 25 26 27 28 29 30 31 32 33 34 35 36 37 38 39 40 41 42 43 44 45 46 47 48 49 50
298
ASUS43 KFSD 230010
RWRSD

WEATHER ROUNDUP FOR SOUTH DAKOTA
NATIONAL WEATHER SERVICE SIOUX FALLS SD
700 PM CDT MON MAY 22 2017

NOTE: "FAIR" INDICATES FEW OR NO CLOUDS BELOW 12,000 FEET WITH NO
SIGNIFICANT WEATHER AND/OR OBSTRUCTIONS TO VISIBILITY.


SDZ001>005-009-010-012>017-230100-
NORTHWEST AND NORTH CENTRAL SOUTH DAKOTA

CITY           SKY/WX    TMP DP  RH WIND       PRES   REMARKS
BUFFALO          N/A     60  37  42 N18G26    30.02S
FAITH            N/A     59  36  42 N17G26    30.03R
MOBRIDGE       CLOUDY    59  37  44 N18G30    29.97R
$$

SDZ012>016-024>037-041>051-057-063-072>074-230100-
SOUTHWEST AND SOUTH CENTRAL SOUTH DAKOTA

CITY           SKY/WX    TMP DP  RH WIND       PRES   REMARKS
RAPID CTY ARPT PTSUNNY   54  39  57 N18       30.09R
PIERRE         CLOUDY    60  36  40 N20G25    29.96R
CUSTER         CLOUDY    45  33  63 N12G23    30.12R
ELLSWORTH AFB  LGT RAIN  54  43  66 N25G31    30.11
PHILIP         CLOUDY    55  47  74 W6        30.02S
PINE RIDGE     CLOUDY    51  45  79 NW3       30.09R
SPEARFISH      RAIN      48  43  81 W8        30.13S
WINNER         FAIR      60  43  53 N14G20    29.98S
$$

SDZ004>011-016>023-039-040-230100-
NORTHEAST SOUTH DAKOTA

CITY           SKY/WX    TMP DP  RH WIND       PRES   REMARKS
ABERDEEN       CLOUDY    57  37  47 N17G25    29.93R
WATERTOWN      CLOUDY    55  41  59 N20       29.88R
BROOKINGS      LGT RAIN  49  47  93 W5        29.89S
SISSETON         N/A     55  43  63 N15       29.88S
$$

SDZ017-020-022-023-036>040-048>070-230100-
SOUTHEAST SOUTH DAKOTA

CITY           SKY/WX    TMP DP  RH WIND       PRES   REMARKS
SIOUX FALLS    CLOUDY    54  47  77 N16G24    29.88R
HURON          CLOUDY    57  47  69 W12       29.91S
CHAMBERLAIN    MOSUNNY   62  43  50 NW9G16    29.96S
MITCHELL       CLOUDY    57  43  59 N13       29.93S
YANKTON        MOSUNNY   58  48  69 N20       29.89R
$$

ABBREVIATIONS USED IN REMARKS
   TC - TEMPERATURE IN CELSIUS
  WCI - WIND CHILL INDEX
   HX - HEAT INDEX
  VSB - VISIBILITY





USA.gov is the U.S. government's official web portal to all federal, state and local government web resources and services.